Glendive, MT

6:30 PM MDT on October 21, 2017 (GMT -0600)
Dawson Community

Weather History for KGDV - November, 2011

Change the Weather History Date:

Sunday, November 27, 2011

  Actual Average Record
Temperature  
Mean Temperature 35 °F -  
Max Temperature 51 °F 35 °F 51 °F (2011)
Min Temperature 19 °F 17 °F -5 °F (1996)
Degree Days  
Heating Degree Days 30    
Moisture  
Dew Point 17 °F    
Average Humidity 50    
Maximum Humidity 74    
Minimum Humidity 28    
Precipitation  
Precipitation 0.00 in - - ()
Sea Level Pressure  
Sea Level Pressure 30.03 in    
Wind  
Wind Speed 12 mph (South)    
Max Wind Speed 16 mph    
Max Gust Speed 22 mph    
Visibility 10 miles    
Events      
Averages and records for this station are not official NWS values.
T = Trace of Precipitation, MM = Missing Value Source: NWS Daily Summary

Daily Weather History Graph

Daily Weather History Graph

Search for Another Location

Airport or City:

Trip Planner

Search our weather history database for the weather conditions in past years. The results will help you decide how hot, cold, wet, or windy it might be!

Date:

Astronomy

Nov. 27, 2011 Rise Set
Actual Time 7:19 AM MST 4:13 PM MST
Civil Twilight 6:45 AM MST 4:48 PM MST
Nautical Twilight 6:07 AM MST 5:26 PM MST
Astronomical Twilight 5:30 AM MST 6:02 PM MST
Moon 9:48 AM MST (11/27) 6:54 PM MST (11/27)
Length of Visible Light 10h 03m
Length of Day
8h 54m
Waxing Crescent, 9% of the Moon is Illuminated
Nov 27
Waxing Crescent
Dec 2
First Quarter
Dec 10
Full
Dec 17
Last Quarter
Dec 24
New

Hourly Weather History & Observations

Time (MST) Temp. Windchill Dew Point Humidity Pressure Visibility Wind Dir Wind Speed Gust Speed Precip Events Conditions
12:15 AM 24.8 °F 14.0 °F 10.4 °F 54% 30.26 in 10.0 mi SSW 11.5 mph - N/A   Clear
12:35 AM 24.8 °F 12.9 °F 8.6 °F 50% 30.25 in 10.0 mi South 13.8 mph - N/A   Clear
12:55 AM 24.8 °F 12.9 °F 10.4 °F 54% 30.24 in 10.0 mi South 13.8 mph - N/A   Clear
1:15 AM 24.8 °F 13.4 °F 10.4 °F 54% 30.24 in 10.0 mi South 12.7 mph - N/A   Clear
1:35 AM 24.8 °F 12.4 °F 10.4 °F 54% 30.24 in 10.0 mi South 15.0 mph - N/A   Clear
1:55 AM 24.8 °F 12.9 °F 10.4 °F 54% 30.23 in 10.0 mi South 13.8 mph - N/A   Clear
2:15 AM 24.8 °F 12.4 °F 10.4 °F 54% 30.22 in 10.0 mi South 15.0 mph - N/A   Clear
2:55 AM 23.0 °F 11.1 °F 10.4 °F 59% 30.21 in 10.0 mi South 12.7 mph - N/A   Clear
3:15 AM 21.2 °F 8.9 °F 10.4 °F 63% 30.20 in 10.0 mi South 12.7 mph - N/A   Clear
3:35 AM 21.2 °F 9.5 °F 10.4 °F 63% 30.19 in 10.0 mi South 11.5 mph - N/A   Clear
3:55 AM 21.2 °F 10.1 °F 10.4 °F 63% 30.19 in 10.0 mi South 10.4 mph - N/A   Clear
4:15 AM 21.2 °F 10.1 °F 10.4 °F 63% 30.18 in 10.0 mi South 10.4 mph - N/A   Clear
4:35 AM 21.2 °F 10.9 °F 10.4 °F 63% 30.18 in 10.0 mi South 9.2 mph - N/A   Clear
4:55 AM 21.2 °F 10.1 °F 12.2 °F 68% 30.17 in 10.0 mi South 10.4 mph - N/A   Clear
5:15 AM 21.2 °F 10.9 °F 12.2 °F 68% 30.16 in 10.0 mi South 9.2 mph - N/A   Clear
5:35 AM 19.4 °F 7.2 °F 12.2 °F 74% 30.15 in 10.0 mi South 11.5 mph - N/A   Clear
5:55 AM 19.4 °F 7.2 °F 10.4 °F 68% 30.15 in 10.0 mi South 11.5 mph - N/A   Clear
6:15 AM 19.4 °F 7.2 °F 10.4 °F 68% 30.15 in 10.0 mi South 11.5 mph - N/A   Clear
6:35 AM 19.4 °F 6.6 °F 12.2 °F 74% 30.14 in 10.0 mi South 12.7 mph - N/A   Clear
7:15 AM 21.2 °F 10.9 °F 12.2 °F 68% 30.13 in 10.0 mi South 9.2 mph - N/A   Clear
7:35 AM 21.2 °F 10.1 °F 12.2 °F 68% 30.12 in 10.0 mi South 10.4 mph - N/A   Clear
7:55 AM 21.2 °F 10.1 °F 14.0 °F 74% 30.12 in 10.0 mi South 10.4 mph - N/A   Clear
8:15 AM 23.0 °F 13.1 °F 14.0 °F 68% 30.11 in 10.0 mi South 9.2 mph - N/A   Clear
8:35 AM 26.6 °F 16.2 °F 15.8 °F 64% 30.11 in 10.0 mi South 11.5 mph - N/A   Clear
8:55 AM 26.6 °F 16.2 °F 15.8 °F 64% 30.11 in 10.0 mi South 11.5 mph - N/A   Clear
9:15 AM 28.4 °F 19.1 °F 15.8 °F 59% 30.10 in 10.0 mi South 10.4 mph - N/A   Clear
9:35 AM 32.0 °F 24.2 °F 15.8 °F 51% 30.09 in 10.0 mi South 9.2 mph - N/A   Clear
9:55 AM 33.8 °F 26.4 °F 17.6 °F 52% 30.09 in 10.0 mi South 9.2 mph - N/A   Clear
10:55 AM 39.2 °F 32.0 °F 19.4 °F 45% 30.07 in 10.0 mi South 11.5 mph - N/A   Clear
11:15 AM 41.0 °F 35.2 °F 19.4 °F 42% 30.05 in 10.0 mi SE 9.2 mph - N/A   Clear
11:35 AM 44.6 °F 38.1 °F 19.4 °F 37% 30.05 in 10.0 mi South 13.8 mph - N/A   Clear
11:55 AM 46.4 °F 42.4 °F 19.4 °F 34% 30.03 in 10.0 mi SE 8.1 mph - N/A   Clear
12:35 PM 46.4 °F 40.4 °F 19.4 °F 34% 30.00 in 10.0 mi SSE 13.8 mph - N/A   Clear
12:55 PM 48.2 °F - 19.4 °F 32% 29.99 in 10.0 mi South 10.4 mph - N/A   Clear
1:15 PM 48.2 °F - 19.4 °F 32% 29.97 in 10.0 mi South 9.2 mph - N/A   Clear
2:15 PM 51.8 °F - 19.4 °F 28% 29.95 in 10.0 mi SSW 15.0 mph - N/A   Clear
2:35 PM 51.8 °F - 19.4 °F 28% 29.94 in 10.0 mi SW 16.1 mph - N/A   Clear
2:55 PM 50.0 °F - 19.4 °F 30% 29.93 in 10.0 mi SW 16.1 mph 21.9 mph N/A   Clear
3:15 PM 48.2 °F - 17.6 °F 30% 29.93 in 10.0 mi SW 16.1 mph 21.9 mph N/A   Clear
3:35 PM 48.2 °F - 19.4 °F 32% 29.92 in 10.0 mi SSW 15.0 mph - N/A   Clear
3:55 PM 46.4 °F 40.4 °F 19.4 °F 34% 29.91 in 10.0 mi SSW 13.8 mph - N/A   Clear
4:15 PM 46.4 °F 40.4 °F 19.4 °F 34% 29.91 in 10.0 mi SSW 13.8 mph - N/A   Clear
4:35 PM 44.6 °F 38.1 °F 19.4 °F 37% 29.90 in 10.0 mi SSW 13.8 mph - N/A   Clear
4:55 PM 44.6 °F 38.4 °F 21.2 °F 39% 29.90 in 10.0 mi SSW 12.7 mph - N/A   Clear
5:15 PM 44.6 °F 37.4 °F 21.2 °F 39% 29.89 in 10.0 mi SSW 16.1 mph - N/A   Clear
5:35 PM 44.6 °F 38.4 °F 21.2 °F 39% 29.88 in 10.0 mi SSW 12.7 mph - N/A   Clear
5:55 PM 42.8 °F 36.2 °F 21.2 °F 42% 29.87 in 10.0 mi SSW 12.7 mph - N/A   Clear
6:15 PM 42.8 °F 38.0 °F 21.2 °F 42% 29.87 in 10.0 mi SSW 8.1 mph - N/A   Clear
6:35 PM 41.0 °F 35.8 °F 21.2 °F 45% 29.87 in 10.0 mi South 8.1 mph - N/A   Clear
6:55 PM 39.2 °F 32.0 °F 21.2 °F 49% 29.86 in 10.0 mi South 11.5 mph - N/A   Clear
7:35 PM 39.2 °F 33.6 °F 21.2 °F 49% 29.86 in 10.0 mi South 8.1 mph - N/A   Clear
7:55 PM 41.0 °F 36.4 °F 21.2 °F 45% 29.85 in 10.0 mi SSE 6.9 mph - N/A   Clear
8:15 PM 41.0 °F 35.2 °F 21.2 °F 45% 29.86 in 10.0 mi SSE 9.2 mph - N/A   Clear
8:35 PM 42.8 °F 37.0 °F 21.2 °F 42% 29.85 in 10.0 mi SSW 10.4 mph - N/A   Clear
8:55 PM 44.6 °F 38.8 °F 23.0 °F 43% 29.84 in 10.0 mi SSW 11.5 mph - N/A   Clear
9:15 PM 46.4 °F 40.1 °F 24.8 °F 43% 29.84 in 10.0 mi SSW 15.0 mph - N/A   Clear
9:35 PM 44.6 °F 38.1 °F 23.0 °F 43% 29.83 in 10.0 mi SSW 13.8 mph - N/A   Clear
9:55 PM 44.6 °F 38.4 °F 23.0 °F 43% 29.83 in 10.0 mi SSW 12.7 mph - N/A   Clear
10:15 PM 44.6 °F 38.1 °F 23.0 °F 43% 29.82 in 10.0 mi South 13.8 mph - N/A   Clear
10:35 PM 48.2 °F - 21.2 °F 34% 29.82 in 10.0 mi WSW 15.0 mph - N/A   Clear
10:55 PM 48.2 °F - 19.4 °F 32% 29.83 in 10.0 mi SW 11.5 mph - N/A   Clear
11:15 PM 48.2 °F - 19.4 °F 32% 29.82 in 10.0 mi SW 10.4 mph - N/A   Clear
11:35 PM 48.2 °F - 19.4 °F 32% 29.82 in 10.0 mi SW 11.5 mph - N/A   Clear
11:55 PM 48.2 °F - 19.4 °F 32% 29.82 in 10.0 mi SW 13.8 mph - N/A   Clear